Location: St. Louis
(38.6270°N, 90.1994°W)
Time: 21:16:09
(UTC-05:00)

deb Kosmos-468 - Pass Details

Date: 20 August 2022
Orbit: 584 x 585 km, 74.0° (Epoch: 30 September)

Event Time Altitude Azimuth Distance (km) Brightness Sun altitude
Rises 00:03:25 0° 344° (NNW) 2,816 ? -37.0°
Reaches altitude 10° 00:05:40 10° 348° (NNW) 1,912 ? -37.1°
Enters shadow 00:06:10 13° 349° (N) 1,711 ? -37.2°
